Volver al catálogo

STARLINK-11647

ActivoComunicacionesVLEO
NORAD 63191·PAYLOAD·🇺🇸 United States

Lanzado Mar 13, 2025 desde Cape Canaveral Space Force Station

Loading…

Próximos Pases (próximas 24 horas)

TLE

ActualizadoSource: CelesTrak SupGP

Época: Sep 15, 2026, 02:45 UTC

1 63191C 25048J   26258.11506944 -.00010397  00000+0 -80691-4 0  2589
2 63191  43.0006 257.9596 0001414 261.9615 126.4046 15.70863089    19

Sigue STARLINK-11647 en tiempo real con AllMySat

Download on the App Store